GLOBALSTAR M019 [-]

Last updated on Fri Dec 29 2023 00:02:56 GMT+0000 (Coordinated Universal Time)

1 25677U 99019B 23361.65488108 -.00000190 00000+0 -10422-2 0 9992 2 25677 51.9871 129.8526 0000343 74.3594 30.6005 12.13850691119860
UTC large
Height (km)
Speed (km/s)
/
Latitude / Longitude
Inclination (degrees)
Orbital Period (minutes)
Azimuth
Elevation
Range (km)
Doppler Factor

Next 0 passes for location: London (51.5072 / 0.1276)

Sorry there are no passes over London.
GLOBALSTAR M019 [-]